San Juan, PR

4:53 PM AST on August 21, 2017 (GMT -0400)
Luis Munoz Marin International

Weather History for TJSJ - February, 2013

Change the Weather History Date:

Friday, February 8, 2013

  Actual Average Record
Temperature  
Mean Temperature 78 °F 78 °F  
Max Temperature 84 °F 84 °F 92 °F (1983)
Min Temperature 72 °F 72 °F 63 °F (1968)
Degree Days  
Heating Degree Days 0 0  
Month to date heating degree days 0 0  
Since 1 July heating degree days 0 0  
Cooling Degree Days 13 13  
Month to date cooling degree days 101 104  
Year to date cooling degree days 522 495  
Growing Degree Days 28 (Base 50)    
Moisture  
Dew Point 70 °F    
Average Humidity 73    
Maximum Humidity 87    
Minimum Humidity 58    
Precipitation  
Precipitation 1.01 in 0.09 in 1.06 in (1935)
Month to date precipitation 1.96 0.74  
Year to date precipitation 3.74 4.50  
Sea Level Pressure  
Sea Level Pressure 29.99 in    
Wind  
Wind Speed 8 mph (ESE)    
Max Wind Speed 20 mph    
Max Gust Speed 25 mph    
Visibility 9 miles    
Events Rain    
T = Trace of Precipitation, MM = Missing Value Source: NWS Daily Summary

Daily Weather History Graph

Daily Weather History Graph

Search for Another Location

Airport or City:

Trip Planner

Search our weather history database for the weather conditions in past years. The results will help you decide how hot, cold, wet, or windy it might be!

Date:

Astronomy

Feb. 08, 2013 Rise Set
Actual Time 6:54 AM AST 6:21 PM AST
Civil Twilight 6:32 AM AST 6:44 PM AST
Nautical Twilight 6:06 AM AST 7:10 PM AST
Astronomical Twilight 5:40 AM AST 7:35 PM AST
Moon 5:13 AM AST (2/8) 4:54 PM AST (2/8)
Length of Visible Light 12h 11m
Length of Day
11h 26m
Waning Crescent, 4% of the Moon is Illuminated
Feb 8
Waning Crescent
Feb 10
New
Feb 17
First Quarter
Feb 25
Full
Mar 4
Last Quarter

Hourly Weather History & Observations

Time (AST) Temp. Heat Index Dew Point Humidity Pressure Visibility Wind Dir Wind Speed Gust Speed Precip Events Conditions
12:56 AM 75.9 °F - 70.0 °F 82% 29.99 in 10.0 mi SE 3.5 mph - N/A   Scattered Clouds
1:56 AM 75.0 °F - 72.0 °F 90% 29.97 in 10.0 mi SE 3.5 mph - 0.04 in   Scattered Clouds
2:56 AM 75.0 °F - 71.1 °F 87% 29.95 in 9.0 mi East 8.1 mph - 0.33 in Rain Light Rain
3:56 AM 73.9 °F - 70.0 °F 87% 29.95 in 7.0 mi East 12.7 mph 17.3 mph 0.00 in Rain Light Rain
4:56 AM 73.0 °F - 70.0 °F 90% 29.94 in 10.0 mi SE 4.6 mph - 0.01 in   Mostly Cloudy
5:56 AM 73.9 °F - 70.0 °F 87% 29.96 in 10.0 mi Calm Calm - N/A   Scattered Clouds
6:56 AM 75.0 °F - 70.0 °F 84% 29.98 in 10.0 mi East 4.6 mph - 0.00 in Rain Light Rain
7:56 AM 73.9 °F - 71.1 °F 91% 30.00 in 7.0 mi ESE 9.2 mph - 0.23 in Rain Light Rain
8:32 AM 73.4 °F - 69.8 °F 88% 30.02 in 1.5 mi ESE 15.0 mph 21.9 mph 0.08 in Rain Heavy Rain
8:50 AM 71.6 °F - 69.8 °F 94% 30.01 in 9.0 mi SSE 4.6 mph - 0.35 in Rain Light Rain
8:56 AM 73.0 °F - 70.0 °F 90% 30.02 in 9.0 mi SSE 4.6 mph - 0.39 in Rain Light Rain
9:56 AM 80.1 °F 84.2 °F 73.0 °F 79% 30.03 in 10.0 mi ESE 9.2 mph - 0.01 in   Mostly Cloudy
10:56 AM 82.0 °F 84.9 °F 68.0 °F 62% 30.04 in 10.0 mi ESE 11.5 mph - N/A   Mostly Cloudy
11:56 AM 82.9 °F 87.0 °F 70.0 °F 65% 30.01 in 10.0 mi ENE 16.1 mph - N/A   Scattered Clouds
12:56 PM 82.9 °F 86.5 °F 69.1 °F 63% 29.99 in 10.0 mi ENE 18.4 mph 25.3 mph N/A   Scattered Clouds
1:56 PM 82.0 °F 85.9 °F 70.0 °F 67% 29.98 in 10.0 mi East 17.3 mph 24.2 mph N/A   Scattered Clouds
2:56 PM 82.0 °F 85.5 °F 69.1 °F 65% 29.96 in 10.0 mi Variable 4.6 mph 16.1 mph N/A   Scattered Clouds
3:00 PM 82.4 °F 86.3 °F 69.8 °F 66% 29.96 in 10.0 mi Variable 5.8 mph - N/A   Scattered Clouds
3:56 PM 82.0 °F 84.5 °F 66.9 °F 60% 29.95 in 10.0 mi ENE 12.7 mph - N/A   Scattered Clouds
4:56 PM 81.0 °F 83.3 °F 66.9 °F 62% 29.96 in 10.0 mi East 16.1 mph - N/A   Scattered Clouds
5:56 PM 79.0 °F - 68.0 °F 69% 29.97 in 10.0 mi East 11.5 mph - N/A   Scattered Clouds
6:56 PM 75.9 °F - 68.0 °F 76% 29.97 in 10.0 mi East 9.2 mph - N/A   Scattered Clouds
7:56 PM 77.0 °F - 68.0 °F 74% 29.99 in 10.0 mi East 8.1 mph - N/A   Partly Cloudy
8:56 PM 77.0 °F - 69.1 °F 76% 30.01 in 10.0 mi ESE 3.5 mph - N/A   Scattered Clouds
9:56 PM 75.0 °F - 69.1 °F 82% 30.02 in 10.0 mi East 3.5 mph - N/A   Partly Cloudy
10:56 PM 73.9 °F - 69.1 °F 85% 30.02 in 10.0 mi Calm Calm - N/A   Scattered Clouds
11:56 PM 75.0 °F - 68.0 °F 79% 30.02 in 10.0 mi Calm Calm - N/A   Partly Cloudy